Torna al catalogo

CZ-6A DEB

AttivoSSO
NORAD 54447·DEBRIS·🇨🇳 China

Lanciato Nov 11, 2022 da Taiyuan Satellite Launch Center

Loading…

Prossimi Passaggi (prossime 24 ore)

TLE

AggiornatoSource: Space-Track

Epoca: Sep 13, 2026, 19:37 UTC

1 54447U 22151FX  26256.81750247  .00000184  00000-0  18071-3 0  9993
2 54447  98.9734 209.5142 0167987 265.2788  92.9167 13.84914283193678

Traccia CZ-6A DEB in tempo reale con AllMySat

Download on the App Store